Theta_e
303 303 303 303 302 302 303 304 304 305 304 303 303 303 303 303 304 305 308 310 310 310 310 310 309 309 309 309 309 309 308 307 307 307 307 309 309 308 309 309 310 311 309 308 309 309 308 308 307 308 311 314 315 316 316 317 318 316 314 314 313 314 313 314 316 316 316 317 315 316 317 316 323 334 340 341 344 345 344 345 346 345 343 343 346 348 348 348
303 303 303 303 303 303 303 303 303 304 305 305 304 303 303 303 303 303 305 308 310 310 310 310 310 310 309 310 310 309 309 308 307 308 310 312 310 308 309 309 309 310 309 308 308 308 308 308 307 309 313 316 317 317 317 317 317 315 315 315 313 313 314 314 316 315 315 316 315 315 317 317 319 327 336 342 346 347 348 348 346 347 346 345 346 347 348 348
303 303 303 303 303 303 303 303 303 303 305 305 306 305 304 304 303 303 303 306 309 310 310 310 311 310 309 310 310 310 309 308 310 313 316 317 314 311 310 309 309 309 308 307 307 307 308 308 307 310 315 316 316 317 317 316 316 314 314 314 313 313 314 314 314 315 316 316 316 315 316 318 316 323 335 342 346 348 350 349 347 347 347 346 347 347 348 347
302 302 303 303 303 303 303 303 303 303 303 304 305 306 306 306 305 304 303 303 305 308 310 311 311 310 310 310 310 310 309 310 316 319 319 318 316 313 311 310 309 308 308 307 307 307 308 310 309 311 316 316 316 317 316 316 316 314 314 314 314 313 313 314 315 315 316 316 316 315 316 318 317 327 339 343 348 349 348 346 345 347 346 346 346 347 347 347
302 302 302 303 302 303 303 303 304 303 303 303 304 305 306 307 307 306 305 304 303 305 308 310 311 310 310 310 310 310 309 314 322 320 319 319 315 313 312 311 309 308 307 307 307 307 309 313 313 313 315 315 316 317 317 318 317 314 313 313 312 313 314 314 315 315 316 317 316 314 316 318 316 324 335 340 347 349 346 342 338 342 344 346 346 346 346 346
302 302 302 302 302 302 303 303 303 303 304 303 304 304 305 307 307 307 307 305 304 303 305 307 310 311 310 310 310 310 309 313 317 316 317 317 315 314 312 311 310 309 307 307 306 307 311 315 314 314 314 315 317 317 318 318 317 315 313 313 312 313 313 314 315 316 316 316 315 315 317 317 316 318 324 331 338 341 341 339 337 340 344 345 346 346 346 345
301 302 302 302 302 302 302 302 302 303 303 303 303 304 304 305 306 308 308 307 305 303 303 304 307 310 310 310 309 310 310 311 313 315 317 316 316 315 314 312 311 309 308 308 306 308 313 315 314 314 315 316 316 317 318 318 317 315 314 313 313 314 312 314 315 315 316 315 315 317 317 317 318 316 319 327 333 337 341 341 341 344 346 346 346 346 346 346
301 301 301 301 302 302 302 302 302 302 302 302 303 303 303 303 304 306 307 308 306 305 304 303 304 306 308 309 308 309 310 311 315 319 319 318 318 318 317 316 313 311 308 307 307 308 313 314 313 314 315 316 317 317 317 317 316 315 315 314 314 314 314 314 315 315 316 316 316 317 317 316 317 316 321 332 335 338 344 346 346 346 347 347 346 346 346 346
300 301 301 301 301 301 302 302 302 302 302 302 302 303 303 303 303 304 305 307 308 308 307 305 304 304 306 306 308 309 309 313 319 320 320 319 320 319 318 317 314 312 309 308 307 309 313 314 314 315 315 316 317 317 316 317 317 316 315 314 314 314 314 315 314 315 315 316 316 316 316 316 317 315 321 332 338 340 345 347 347 347 347 347 346 346 346 345
300 300 300 301 300 301 301 301 301 301 302 302 302 302 303 303 304 303 304 305 307 309 308 308 306 304 304 304 308 311 310 316 321 319 319 318 318 319 317 315 314 312 309 308 307 309 314 315 315 315 315 316 316 316 316 316 317 315 314 313 313 313 313 314 313 315 315 315 316 316 317 317 317 316 319 330 338 341 345 347 347 347 347 347 346 346 346 345
300 300 300 300 300 300 301 301 301 301 301 302 302 302 302 302 303 303 304 303 304 306 307 308 308 307 306 305 307 310 309 315 320 319 318 317 318 319 316 314 313 313 309 307 308 312 316 316 316 315 314 315 315 315 315 315 315 313 314 313 312 313 313 314 313 314 315 315 317 317 318 317 317 316 316 328 338 340 342 347 347 347 347 347 347 346 346 345
300 300 300 300 300 300 300 300 300 301 301 301 301 302 302 302 302 303 303 303 303 304 304 305 306 307 308 307 307 309 308 312 316 317 315 315 317 318 317 316 314 314 311 307 309 315 316 315 315 314 315 314 313 313 313 314 313 313 313 313 313 313 313 313 313 314 315 315 317 317 317 317 317 317 315 326 338 340 341 345 346 347 347 347 347 347 346 345
299 299 300 300 300 300 300 300 300 301 301 301 301 301 302 302 302 302 303 303 303 303 303 304 304 306 308 309 310 308 309 310 311 312 312 311 314 318 317 316 314 314 314 310 310 314 315 315 315 314 315 314 312 312 313 313 314 314 314 313 313 314 314 314 313 315 315 314 317 316 315 319 319 316 315 324 335 339 340 343 344 345 346 345 346 346 345 345
299 299 300 299 300 300 300 300 300 300 300 301 301 301 302 301 302 302 302 302 302 303 303 303 303 305 308 310 308 308 311 312 311 311 311 311 314 317 316 314 314 313 315 312 310 312 314 314 314 314 314 314 313 313 314 313 313 314 313 314 313 313 316 316 314 315 315 315 317 315 315 318 320 317 316 322 333 337 337 340 341 341 345 343 344 346 344 345
299 299 299 299 299 300 300 300 300 300 300 300 300 301 301 301 302 302 302 302 302 302 302 303 305 307 311 311 307 311 314 313 312 311 313 313 315 318 317 315 314 314 315 314 313 314 314 315 314 314 314 314 313 313 314 313 314 314 313 317 317 313 315 315 313 315 316 316 315 315 316 317 317 317 316 319 329 336 334 335 337 337 343 343 342 345 343 343
299 299 299 299 299 299 299 299 300 300 300 300 300 300 301 301 302 302 302 302 301 303 303 305 309 312 314 315 311 314 316 312 311 311 314 315 316 317 317 316 315 315 315 315 316 315 315 314 314 314 313 314 314 313 313 314 317 318 314 317 319 314 315 314 314 314 314 316 314 315 316 318 318 316 316 315 324 333 333 333 334 334 339 342 342 343 342 342
298 298 298 299 299 299 299 299 300 300 300 300 300 301 301 301 302 302 302 302 303 306 306 308 314 314 314 314 312 314 316 314 312 312 314 315 316 317 318 317 315 316 315 315 315 314 315 314 314 316 315 314 315 314 314 314 316 317 314 316 319 316 314 314 315 315 313 315 314 314 315 317 320 317 315 315 319 327 331 332 333 333 336 341 342 340 341 340
298 298 298 298 298 298 299 299 299 300 300 300 300 301 301 302 302 301 303 306 308 311 311 312 313 314 314 313 313 315 316 316 315 314 314 315 315 317 317 317 317 316 315 315 315 315 315 314 314 318 317 315 315 314 314 313 313 315 314 316 318 316 315 314 314 314 314 315 314 315 315 315 318 315 314 316 316 320 327 331 332 332 336 340 341 339 338 337
298 298 299 298 298 298 299 299 299 299 300 300 300 301 301 303 304 307 313 315 314 316 317 315 313 314 315 314 315 316 316 316 315 315 316 315 314 315 315 316 317 316 315 315 315 313 313 314 314 316 316 315 314 313 312 312 312 314 315 316 316 315 314 313 313 314 314 314 314 315 315 314 315 315 314 316 315 314 321 328 331 333 336 339 339 337 335 335
298 298 298 299 299 298 299 299 299 299 299 301 302 302 302 303 304 312 318 315 314 314 314 314 313 313 314 313 314 315 315 314 314 316 317 315 315 314 314 314 315 315 315 315 315 313 313 316 315 314 314 315 316 316 314 313 312 313 313 313 314 314 313 314 314 314 313 314 315 315 315 314 314 316 315 314 314 314 315 321 330 334 336 339 338 335 334 336
298 298 299 299 298 299 299 299 299 299 301 304 305 305 305 303 304 309 310 309 309 310 309 310 311 312 312 311 312 312 313 313 313 316 317 316 315 314 313 314 314 315 314 313 315 314 313 315 314 313 315 317 318 319 319 317 314 314 313 312 313 313 313 314 314 315 314 315 316 316 314 314 314 315 315 314 315 316 315 321 330 334 336 338 336 333 334 335
298 298 298 299 299 299 299 299 299 300 303 307 308 307 308 308 307 307 307 307 308 310 310 310 310 311 310 310 310 311 313 315 314 315 316 316 316 314 314 314 315 316 315 313 313 314 314 314 313 313 315 318 318 319 319 318 317 315 313 313 313 313 314 314 315 317 316 316 318 317 314 314 314 315 315 315 315 315 314 321 331 334 336 338 335 333 334 334
298 298 298 298 299 299 299 300 299 301 306 309 309 308 309 310 311 311 310 309 310 310 310 311 311 310 310 309 309 311 314 315 314 314 315 315 314 313 314 315 315 316 314 314 314 314 314 314 312 312 313 316 317 317 318 317 317 317 316 314 314 314 313 314 316 319 319 318 319 318 315 314 315 315 316 314 313 314 313 319 330 334 337 338 335 335 336 336
298 298 298 299 299 299 300 299 299 303 309 311 308 307 309 310 311 312 311 311 311 311 310 310 311 310 310 309 309 311 314 314 314 314 314 314 313 313 315 315 315 314 313 314 314 314 313 312 312 312 313 315 315 316 317 317 316 317 317 315 314 314 314 315 318 321 322 321 321 319 313 314 318 316 316 316 314 315 316 322 331 334 337 337 335 335 336 336
297 298 298 298 299 300 299 300 303 306 308 310 307 306 309 310 310 310 311 314 315 313 312 311 311 311 309 310 310 311 313 313 313 314 314 314 314 315 315 315 314 314 313 313 312 312 312 312 312 312 313 312 313 315 315 317 316 315 318 317 315 315 314 316 320 320 320 319 322 320 311 316 329 324 318 320 319 317 319 326 333 333 336 336 334 334 334 335
297 298 298 298 299 299 299 302 304 303 303 305 304 305 308 310 310 309 312 318 320 317 316 314 312 312 310 311 312 312 313 313 312 313 315 315 315 316 315 314 313 313 312 312 311 313 312 312 313 313 314 312 312 313 313 316 316 316 323 324 318 316 315 318 320 318 318 320 322 321 315 320 333 331 325 325 322 320 323 329 333 332 334 334 334 334 334 334
297 297 298 298 299 299 300 301 301 302 304 304 303 303 306 310 309 308 314 320 321 320 318 314 312 314 313 312 312 312 315 315 313 313 315 315 315 316 316 314 312 311 312 311 311 313 313 313 313 314 314 313 312 312 312 315 316 318 327 327 319 317 317 318 318 317 319 321 319 322 322 319 325 331 331 326 320 325 332 334 333 333 333 333 333 333 334 334
297 297 297 298 299 300 300 299 302 307 308 306 304 302 306 309 308 310 317 318 317 316 316 313 314 315 313 312 312 313 316 316 315 315 314 315 315 315 315 314 311 312 312 312 312 314 315 315 314 314 313 313 313 312 313 314 314 320 327 323 319 318 317 317 317 317 319 318 316 321 323 317 325 337 331 325 322 327 336 337 332 333 332 332 333 332 333 334
297 297 297 298 299 300 300 299 304 309 309 308 306 304 306 306 307 315 319 319 316 314 314 315 316 316 313 313 312 312 314 315 316 316 314 315 316 315 315 313 312 312 312 311 313 315 316 314 313 313 313 314 313 313 314 314 315 321 323 320 318 317 316 316 316 315 316 316 316 323 323 316 327 339 331 329 328 327 334 336 331 332 332 331 332 331 332 334
297 297 298 298 299 301 301 300 303 309 310 308 306 305 304 307 314 319 318 317 316 314 314 316 316 317 316 312 311 313 313 315 316 314 315 316 315 315 315 314 313 313 314 314 314 314 313 313 314 313 312 314 315 315 314 314 316 320 320 317 316 317 317 317 318 317 316 318 323 329 327 318 322 330 330 331 329 328 333 334 331 331 332 332 332 331 332 334
297 299 300 300 300 301 301 301 305 309 309 308 307 304 304 310 318 320 316 315 317 316 314 315 314 316 317 314 314 315 313 316 317 314 315 316 315 315 316 316 315 315 317 315 315 316 314 312 314 314 314 314 315 316 314 314 315 316 318 316 315 322 322 316 317 316 315 321 332 332 325 319 320 326 330 331 328 329 333 333 331 331 331 331 331 331 333 334
298 300 301 300 300 301 301 301 305 308 309 309 306 305 310 313 313 317 318 315 319 318 313 312 312 312 317 318 317 316 316 318 317 315 316 316 317 316 316 320 319 316 319 320 318 318 317 316 314 314 316 315 315 317 316 317 316 314 318 317 315 320 321 321 322 319 318 324 329 327 321 318 322 325 327 329 330 331 332 332 331 331 331 331 331 332 333 333
301 301 300 302 304 305 304 302 302 304 307 308 305 308 317 314 312 316 317 313 315 315 311 311 310 308 313 318 319 320 321 320 318 316 316 315 317 317 315 318 319 316 321 324 319 316 316 318 316 313 315 316 316 318 317 319 319 314 316 317 317 319 318 321 325 320 318 321 321 322 318 317 327 329 324 326 331 332 331 331 331 331 331 331 331 332 332 333
302 301 302 306 308 306 305 302 302 304 305 304 307 314 314 311 313 318 316 313 312 311 310 309 308 307 310 316 321 323 324 325 322 317 316 316 317 318 316 315 315 316 318 318 317 318 317 318 321 317 315 316 316 318 318 322 321 316 316 317 318 324 322 321 324 319 317 320 321 323 317 318 331 333 323 325 330 331 331 331 331 330 330 331 331 331 332 332
302 301 304 311 311 307 306 303 303 305 306 307 313 316 313 312 315 316 316 315 311 308 309 306 306 308 310 315 319 319 320 325 324 319 318 318 316 319 319 315 315 316 316 317 320 318 313 317 324 318 314 315 316 317 316 317 319 317 317 315 314 323 327 324 326 324 322 323 322 323 322 322 329 328 322 326 330 330 330 330 330 331 330 330 330 330 331 331
303 303 305 311 313 311 310 306 305 307 309 312 314 313 314 316 314 312 313 311 307 307 307 305 306 309 311 316 317 315 317 323 323 322 321 320 320 320 318 315 315 314 314 320 324 317 312 318 324 317 315 317 314 317 315 313 320 321 317 316 315 319 325 325 324 322 322 323 320 323 326 326 327 327 324 326 330 330 330 329 329 329 330 330 330 330 331 331
307 308 308 312 314 314 313 311 308 307 309 314 317 316 315 313 310 309 309 308 308 307 305 305 308 309 310 313 314 314 316 320 322 321 320 324 327 324 319 317 318 316 314 316 318 319 315 317 322 316 315 319 313 314 316 312 320 322 315 316 317 314 322 330 327 321 320 322 324 325 327 327 328 330 327 327 329 330 329 328 327 328 329 329 329 330 331 330
311 314 312 313 313 313 313 313 312 309 310 316 318 317 314 311 308 308 307 306 307 305 304 306 309 311 310 310 313 314 313 317 321 321 321 322 324 324 321 320 320 317 316 313 316 322 318 315 324 321 314 319 316 311 315 315 314 315 316 319 319 317 323 328 324 322 322 322 323 324 326 326 326 326 327 327 329 330 329 328 329 329 328 329 329 329 330 330
311 315 314 313 312 313 312 313 313 311 312 316 316 313 312 310 308 307 307 307 306 305 306 306 309 312 311 310 313 313 310 316 322 323 324 323 323 323 320 322 325 321 316 315 316 320 319 315 323 327 317 318 322 316 317 320 315 313 318 318 320 326 330 326 321 324 327 327 325 324 327 328 325 323 325 327 327 330 331 330 331 329 327 328 329 329 329 329
307 312 315 313 313 313 312 312 313 312 313 317 315 312 310 309 308 309 310 308 306 307 308 307 307 310 312 311 312 312 311 317 324 326 325 324 325 324 320 321 327 323 316 316 317 319 321 317 319 326 318 316 325 322 317 319 316 314 318 318 318 323 324 322 323 323 325 332 332 327 328 328 324 323 325 327 326 327 330 331 329 326 326 328 328 328 329 329
305 311 314 313 313 313 311 312 313 314 315 316 314 312 311 310 311 311 310 310 308 309 308 307 307 309 310 311 311 311 310 313 323 326 324 323 324 324 322 318 321 321 317 319 321 320 322 322 323 327 321 317 326 324 316 318 316 314 317 318 320 321 320 321 323 323 326 333 332 328 329 328 324 324 325 327 327 325 326 327 326 324 325 327 327 327 327 328
311 314 314 313 314 312 311 314 314 313 314 316 314 312 311 311 311 310 310 310 309 309 309 308 309 309 309 310 309 310 309 310 318 323 323 324 324 323 321 317 317 319 318 321 322 319 322 323 322 326 323 320 322 319 316 316 316 316 316 316 319 323 325 326 327 329 330 328 325 329 332 327 323 324 325 325 325 324 323 323 324 324 324 325 325 325 326 326
311 313 313 312 313 311 313 317 316 314 314 314 311 311 310 310 310 309 309 309 309 309 310 308 309 309 309 309 309 310 310 310 314 320 321 322 322 320 318 316 317 318 321 324 321 318 322 323 323 328 329 325 322 319 318 317 318 320 320 319 320 321 323 324 328 333 334 328 328 333 331 325 322 324 324 323 324 323 322 322 323 323 324 324 325 325 325 325
308 311 312 313 313 312 313 314 315 314 314 312 310 311 310 310 310 309 309 310 309 310 311 309 309 309 309 309 309 309 311 311 312 315 318 319 320 318 316 316 318 320 322 323 320 318 321 322 325 329 326 321 323 322 322 322 321 320 321 321 322 323 325 323 324 330 331 327 329 333 330 325 323 323 323 322 323 323 323 322 322 323 323 323 323 324 324 324
310 312 312 312 312 312 312 311 311 313 314 312 313 313 311 310 310 309 309 309 309 309 310 310 309 310 310 310 311 311 312 312 312 313 315 317 318 316 315 315 317 319 321 320 318 319 322 323 326 329 327 324 324 323 325 324 320 320 322 322 322 325 326 324 324 328 327 324 326 329 327 325 323 322 321 320 322 323 323 321 320 319 318 317 318 320 321 321
311 312 311 311 310 310 310 310 310 313 314 314 315 313 311 311 310 308 309 309 309 309 309 310 310 311 312 312 314 314 314 314 314 315 315 315 316 315 315 316 316 318 320 317 315 320 325 325 325 328 330 328 323 320 321 321 319 319 321 322 323 324 324 327 328 327 327 328 327 325 325 326 323 321 321 320 322 323 321 317 315 313 311 311 312 313 314 315
312 312 310 308 309 310 311 309 309 311 311 312 313 311 310 310 309 309 309 309 309 308 309 310 310 311 312 313 316 315 314 315 315 314 314 314 315 314 314 315 316 318 320 316 315 323 328 326 323 324 324 322 319 317 317 317 317 317 319 322 324 323 324 330 330 322 322 328 327 323 324 326 324 322 322 322 323 321 317 314 311 310 309 309 308 309 310 310
310 310 308 307 310 313 312 310 309 311 311 311 312 310 310 310 310 309 309 309 309 308 309 310 308 309 310 311 314 314 313 317 317 314 314 313 312 316 317 317 316 316 317 316 316 322 326 322 320 321 322 321 319 317 318 319 317 316 318 319 320 322 324 327 327 323 325 330 328 324 325 325 324 323 323 323 321 317 314 311 310 309 308 307 307 306 306 307
308 309 308 308 310 311 311 309 308 309 311 312 312 310 310 310 310 309 308 310 313 309 308 310 307 307 309 309 312 312 311 315 316 315 315 311 311 316 318 318 318 316 318 320 318 319 322 320 318 320 323 323 320 318 319 320 319 318 317 316 316 320 323 324 322 322 324 327 325 323 324 325 323 323 323 320 316 313 311 310 309 308 307 306 306 305 304 304
308 309 308 310 311 309 309 308 308 310 311 311 312 310 308 309 310 309 307 310 313 310 308 309 308 307 309 309 310 310 308 309 310 311 313 310 311 316 315 316 322 321 320 323 321 317 318 318 317 318 322 322 320 322 321 319 319 319 317 314 315 319 324 326 323 322 322 322 322 322 323 323 321 318 317 315 311 310 309 308 307 307 306 305 305 304 304 304
308 309 308 311 312 309 307 305 308 313 313 311 313 311 308 309 309 308 309 308 308 309 308 308 309 309 310 310 310 309 306 305 306 308 308 308 310 313 311 313 320 321 320 321 319 318 320 319 317 318 321 320 318 321 322 318 318 320 316 313 314 318 323 325 323 322 322 321 321 322 322 322 318 313 311 310 309 308 307 306 306 306 306 305 304 303 303 303
307 309 308 309 310 306 304 305 306 310 309 307 310 310 308 309 307 307 311 308 306 307 307 307 308 309 311 312 311 308 305 304 305 305 305 306 307 308 308 310 312 315 320 321 319 319 322 321 319 320 322 320 317 318 320 318 318 319 315 311 311 315 319 321 321 320 319 320 321 321 320 318 314 310 308 308 307 307 306 306 306 305 304 305 305 305 305 305
Wind_Speed
9 9 9 9 9 8 8 8 8 8 9 9 8 8 9 8 9 9 9 9 9 9 9 9 10 12 13 15 16 17 18 18 18 18 20 13 6 10 11 11 12 11 11 10 10 11 12 14 14 14 14 11 8 10 11 11 13 10 4 4 4 5 7 3 3 5 4 8 9 19 23 5 4 11 15 13 18 21 17 15 16 13 15 23 24 33 39 37
8 8 9 9 9 9 9 8 8 8 8 9 9 8 8 8 9 9 9 9 9 9 9 10 10 11 14 15 16 19 19 20 21 18 15 8 7 12 9 9 12 12 12 10 11 11 13 15 15 15 13 10 7 8 8 7 10 9 3 4 6 7 6 2 5 9 5 9 12 21 26 7 4 4 11 7 7 17 17 12 19 24 20 23 30 36 37 38
8 8 8 8 8 8 9 9 9 8 8 9 9 9 9 9 9 9 9 10 10 10 10 10 10 12 14 15 17 19 20 22 19 8 3 6 5 8 10 9 10 12 11 9 10 11 12 13 13 15 12 8 9 10 8 6 7 10 6 3 7 8 5 8 12 11 11 14 14 19 19 8 11 5 10 7 6 10 12 10 14 22 25 29 34 37 37 38
8 8 8 8 8 8 8 8 8 9 9 9 8 8 9 9 9 9 10 10 10 10 10 11 11 12 13 15 16 18 21 21 9 2 2 7 8 4 6 9 9 11 11 9 10 11 11 10 10 14 11 7 11 10 8 10 7 6 7 5 8 7 5 15 18 14 18 21 17 17 12 9 13 8 16 12 8 2 8 20 18 25 34 36 35 36 37 36
9 9 8 8 8 8 8 8 8 9 9 9 8 8 8 9 9 10 10 10 10 11 11 12 12 12 14 15 15 18 18 11 1 2 2 4 7 6 1 6 9 10 10 9 10 13 13 13 10 11 10 5 7 6 7 15 13 4 6 10 12 10 6 16 22 18 23 24 18 17 12 6 9 6 19 15 9 6 15 25 24 30 38 39 38 37 36 36
9 9 9 9 9 9 9 9 9 9 9 9 8 8 8 8 9 9 10 10 10 11 11 12 12 13 14 15 16 17 12 4 2 3 3 2 4 7 5 1 7 9 10 11 12 14 15 15 10 9 8 4 6 6 9 16 13 6 7 12 18 17 11 17 24 20 22 21 13 14 14 5 6 6 6 10 11 17 23 25 24 29 36 39 39 38 37 35
10 10 10 10 10 10 10 10 10 10 10 9 9 9 9 9 9 9 10 10 10 10 11 12 12 13 14 15 16 14 13 11 7 4 3 3 3 5 7 4 3 7 11 12 14 17 18 15 11 9 6 4 6 7 13 17 12 7 7 10 18 21 16 20 26 25 26 20 15 18 16 6 1 6 6 3 13 22 24 23 26 31 36 38 37 38 36 34
10 11 11 11 11 11 11 11 11 10 10 10 10 10 10 10 9 9 9 10 10 9 10 11 11 13 13 14 13 13 17 14 5 2 3 2 2 6 7 7 5 6 10 13 16 20 19 15 13 10 5 6 8 7 13 14 9 7 9 12 17 21 20 25 26 25 26 19 17 19 15 10 3 3 5 8 18 23 26 24 28 33 36 37 37 37 35 34
11 11 11 11 11 11 11 11 11 11 11 11 11 10 11 11 10 10 9 9 10 9 10 10 11 13 13 14 12 11 14 8 2 3 4 3 2 6 9 9 7 7 9 13 17 20 18 15 15 12 6 10 12 11 12 7 4 6 10 14 14 18 21 24 23 22 25 17 13 11 8 12 6 2 1 14 23 25 29 28 29 34 36 35 36 37 36 34
11 12 12 12 12 12 12 12 12 12 12 12 11 11 11 12 11 11 10 10 9 9 10 10 10 11 13 13 7 5 7 4 2 2 3 3 4 6 8 8 8 7 8 13 18 21 19 16 15 12 7 12 11 11 12 6 8 11 13 15 14 17 20 20 19 23 26 16 10 9 5 11 8 3 2 12 23 27 30 31 31 33 34 35 35 36 35 32
12 12 12 12 12 13 13 13 13 13 13 13 12 13 12 13 12 11 11 10 10 11 11 11 12 12 13 12 8 6 5 5 3 2 2 4 7 6 6 6 7 7 7 12 19 23 20 15 12 8 6 8 8 10 13 10 12 15 14 14 14 16 17 16 14 18 19 9 11 14 8 9 6 2 5 13 24 28 30 32 32 33 34 35 35 35 34 31
12 12 12 12 12 13 13 13 13 13 14 14 14 14 13 13 13 13 12 12 12 12 12 13 12 13 14 15 17 9 4 7 7 6 6 7 8 6 7 8 8 7 7 11 20 22 17 13 10 10 9 6 5 6 10 12 12 14 11 7 10 11 10 11 10 15 13 5 12 12 3 7 3 5 11 17 28 29 31 32 31 33 34 35 36 35 34 30
13 13 13 13 13 13 13 13 14 14 14 14 15 15 15 15 14 14 13 13 14 13 13 13 14 16 14 16 20 11 9 14 13 15 16 13 10 6 6 9 9 7 6 8 18 21 15 12 11 16 18 12 8 6 10 15 12 11 9 3 6 7 7 8 6 10 9 5 12 9 2 8 5 11 18 18 31 28 27 30 28 30 30 32 34 34 34 32
14 14 14 13 13 13 13 14 14 14 14 15 15 16 16 16 15 15 14 14 15 14 14 13 14 14 12 18 21 14 12 14 16 20 16 12 12 8 6 7 8 7 5 5 13 18 13 11 14 19 21 17 12 7 9 11 7 5 6 3 3 3 5 7 4 4 4 5 11 10 4 8 7 13 20 19 31 29 25 28 26 27 29 30 32 34 33 28
15 15 15 14 14 14 14 14 15 15 15 15 15 16 16 17 17 16 15 15 16 16 15 13 12 11 13 22 21 10 9 13 19 22 15 12 13 11 8 6 8 7 6 7 9 12 11 12 16 17 16 14 10 4 4 4 4 1 2 4 4 3 5 8 7 4 4 7 7 9 4 6 7 13 21 20 29 32 26 27 27 27 29 30 32 30 24 20
16 16 15 15 15 14 15 15 15 15 15 15 15 16 16 17 18 17 16 17 17 16 12 9 9 7 8 14 12 5 10 14 17 19 16 12 12 13 9 6 8 8 10 12 11 12 14 15 17 14 10 7 4 1 2 4 4 1 2 4 5 4 4 6 7 6 9 7 4 7 5 4 6 12 23 22 24 33 26 24 28 27 27 31 29 23 22 22
17 17 16 16 15 15 15 15 16 16 16 16 16 15 16 17 18 18 18 18 16 12 8 7 6 6 10 13 11 8 7 9 11 15 18 14 12 14 11 10 11 10 11 13 13 15 17 14 10 8 6 3 2 4 1 4 5 4 1 3 4 5 4 4 6 7 6 6 5 6 5 6 8 9 19 25 21 28 24 21 27 28 27 29 25 23 24 25
17 17 17 16 15 15 15 15 16 16 16 16 16 16 16 16 16 17 17 16 10 3 4 8 4 2 10 12 9 8 4 5 9 11 17 16 14 15 15 15 13 12 12 11 13 14 13 9 3 2 3 3 3 5 4 5 4 4 2 2 4 4 5 5 6 6 3 4 6 6 5 9 12 10 14 24 23 21 25 26 28 30 27 25 26 28 30 32
18 17 17 16 15 14 14 15 15 16 16 15 14 14 15 14 14 13 10 7 6 3 2 8 9 3 7 11 11 11 11 13 15 13 17 17 16 16 17 17 15 15 11 5 7 9 8 4 1 4 4 5 4 4 7 4 0 4 4 4 4 5 6 7 8 6 3 4 6 7 7 10 14 13 12 20 24 16 22 27 26 26 24 26 30 33 35 35
17 17 16 15 14 14 13 14 14 15 16 15 12 10 9 9 7 5 5 8 12 12 13 14 17 19 21 24 23 18 18 18 15 14 18 17 17 18 17 17 14 12 9 4 4 6 7 4 5 7 5 4 5 6 8 5 5 6 6 5 5 6 6 6 9 8 2 3 6 9 10 11 15 15 13 18 20 10 13 20 19 21 22 29 33 34 36 34
17 17 16 15 14 13 13 13 13 14 15 12 10 8 7 8 5 5 9 15 21 21 21 22 22 27 30 29 28 22 17 15 11 12 17 18 19 16 14 13 7 5 7 7 5 3 5 7 8 7 5 6 8 8 7 7 7 7 6 7 7 6 7 9 11 9 2 3 6 10 11 13 16 15 14 15 11 7 11 17 22 24 24 29 34 35 37 36
17 16 16 15 13 13 12 12 13 13 12 10 7 9 12 14 10 10 11 13 24 26 23 25 25 30 35 32 31 25 17 14 13 12 14 21 22 15 12 11 5 3 5 5 4 2 3 7 9 8 7 8 8 7 7 7 7 6 5 5 6 6 6 10 9 5 1 4 5 10 10 12 17 15 14 13 9 12 16 20 31 35 30 31 34 35 38 36
17 16 16 15 14 13 11 11 12 11 11 9 7 11 16 18 13 11 11 9 21 28 24 26 28 30 35 34 31 24 18 15 15 16 15 20 24 19 14 8 5 5 4 4 5 4 4 8 9 9 8 7 7 8 7 6 5 5 5 4 7 7 5 7 5 5 5 4 4 9 8 9 13 11 10 12 12 14 15 21 36 42 40 38 38 39 41 40
18 17 16 16 14 12 10 12 11 9 10 8 6 12 15 16 14 12 10 5 11 22 24 25 26 29 33 29 22 20 22 19 16 17 18 21 24 18 13 8 6 5 5 7 8 7 8 12 8 6 7 8 8 9 7 5 5 5 7 6 7 9 8 7 4 6 7 6 3 3 3 6 7 7 9 8 7 8 6 15 26 30 35 38 38 39 41 42
18 17 16 16 15 12 10 10 8 6 10 9 6 10 12 12 13 13 9 3 5 12 15 12 16 23 25 19 14 18 20 19 19 19 19 25 25 15 9 9 8 5 6 8 7 6 11 16 9 6 8 9 8 9 8 6 5 6 7 9 11 13 12 7 6 5 6 7 3 4 2 6 5 4 8 3 1 2 2 14 18 22 29 33 37 37 37 40
18 18 17 16 15 13 9 7 7 9 11 9 7 9 9 6 10 11 5 2 3 6 5 2 8 11 12 13 16 15 7 12 22 22 21 27 28 17 8 6 6 5 7 6 4 3 8 12 8 8 9 9 9 9 9 8 5 6 6 9 14 13 9 5 5 2 0 6 5 4 3 5 5 3 6 2 5 4 5 11 15 22 29 32 36 37 37 40
18 18 17 16 16 15 11 7 9 10 8 7 8 10 10 6 7 7 2 2 4 4 0 4 6 2 6 13 20 16 2 6 15 20 25 28 28 21 10 6 5 6 6 3 3 4 7 8 7 9 9 7 7 8 9 9 6 6 7 8 10 9 7 5 3 3 3 5 6 3 4 2 4 4 5 2 6 8 8 10 11 18 26 31 35 37 40 42
18 17 16 15 14 14 13 10 8 6 5 6 8 10 9 7 5 4 2 1 4 2 2 4 5 2 4 13 24 19 4 5 8 15 27 28 25 18 8 6 7 7 7 6 5 6 4 7 8 9 8 5 7 11 12 9 7 8 8 8 8 6 6 5 3 4 2 2 7 6 2 2 4 5 4 4 6 7 7 10 9 15 24 30 33 36 38 40
17 16 16 14 13 12 12 10 6 4 4 6 6 8 6 5 3 2 4 0 3 2 1 2 3 3 5 13 22 20 8 6 5 9 22 27 27 19 9 10 10 7 8 7 6 7 5 8 9 7 7 6 10 13 13 11 8 8 7 7 5 3 3 2 3 2 2 0 6 8 0 2 4 5 5 4 5 4 5 6 7 12 21 28 32 34 36 38
16 15 15 14 13 11 11 11 5 3 6 7 5 4 4 2 2 4 1 3 3 3 2 1 2 4 5 9 11 14 10 5 3 7 14 22 27 20 11 14 11 3 4 3 5 7 9 15 12 6 7 9 11 11 11 14 11 4 4 5 2 3 2 1 1 2 2 2 7 9 3 4 2 5 4 3 1 6 8 6 8 11 16 23 28 32 35 38
14 13 14 14 12 11 12 9 3 5 6 6 7 2 3 1 4 4 2 3 3 4 2 4 6 9 1 4 5 9 8 4 4 9 6 9 13 10 3 7 7 1 3 3 4 6 8 11 8 6 13 12 9 6 5 6 6 4 3 2 1 5 3 3 3 3 3 4 7 6 3 5 1 4 4 5 4 9 13 11 13 14 17 21 24 28 33 37
12 11 12 13 12 12 11 6 5 7 7 6 7 3 4 3 2 2 3 5 3 2 3 5 8 10 6 3 2 5 6 3 2 6 5 4 5 6 4 4 5 2 3 4 3 6 5 6 5 6 15 10 7 4 4 3 2 3 4 5 2 3 2 2 2 1 3 5 7 4 4 4 3 4 4 9 7 7 12 15 19 19 21 24 23 25 28 31
9 10 10 9 10 9 7 5 7 8 8 8 6 2 4 4 2 5 3 3 2 3 6 9 12 12 7 6 2 1 1 0 1 1 4 5 5 7 6 5 6 5 3 3 2 3 4 7 5 3 8 7 6 3 2 3 1 2 3 4 4 2 1 2 3 1 2 5 7 4 4 2 3 2 8 13 6 6 13 19 22 22 24 26 25 25 25 27
8 9 6 3 4 4 2 2 5 6 7 6 2 3 4 2 4 4 2 3 3 6 8 11 14 13 8 4 4 3 1 1 1 0 1 3 5 6 5 5 5 5 3 2 1 3 3 5 5 3 4 4 5 5 6 4 2 3 4 5 4 4 4 3 3 2 3 4 5 3 2 1 2 2 9 11 7 10 18 23 23 22 23 25 26 25 24 25
8 6 3 0 2 5 5 4 2 4 4 5 4 5 2 3 3 2 2 3 3 6 10 12 10 8 6 4 2 1 1 0 1 0 0 3 5 6 5 5 6 4 4 3 2 2 4 5 7 6 5 5 5 5 6 6 0 4 3 5 2 5 5 2 3 4 3 2 3 3 1 1 3 1 8 9 9 9 14 23 26 24 23 21 21 21 21 23
7 5 1 2 2 3 6 8 6 6 6 6 4 2 3 4 2 2 2 4 4 7 11 11 6 3 5 4 4 5 5 2 0 1 1 2 2 3 4 3 4 4 4 3 3 1 2 6 7 4 3 5 9 7 6 7 3 2 2 2 5 5 7 3 1 0 2 2 1 2 2 3 1 3 10 8 9 7 4 7 11 15 19 18 16 16 18 21
6 4 1 3 4 3 4 6 8 8 6 6 4 2 4 3 3 3 4 7 9 8 7 6 4 2 3 4 4 5 3 1 1 1 1 1 1 2 1 2 1 3 3 2 2 2 3 5 8 5 4 7 10 8 4 5 7 3 1 5 3 2 4 3 1 2 3 2 2 2 4 2 3 1 6 7 7 8 4 3 3 6 13 15 14 14 14 17
6 5 3 2 3 6 6 4 7 7 5 5 2 3 3 2 3 5 8 10 10 8 3 2 3 2 3 4 3 3 1 1 0 0 2 2 2 1 2 3 2 4 5 3 1 2 3 4 8 6 5 6 3 2 3 4 4 5 3 3 3 2 1 0 2 1 1 2 1 2 3 2 1 1 4 5 1 7 4 1 2 5 11 14 15 16 14 15
6 4 4 3 2 5 6 5 5 4 4 3 1 3 2 4 7 10 14 13 7 5 3 4 4 2 4 3 4 3 1 1 1 1 1 1 2 4 4 3 2 4 9 7 2 2 2 3 6 5 4 2 4 2 1 5 5 1 2 2 2 3 4 2 2 4 4 2 2 1 2 0 2 3 3 4 4 2 6 4 3 7 12 15 16 17 16 16
5 3 2 2 1 3 4 6 7 4 2 1 3 3 3 5 8 14 18 13 5 3 4 5 4 3 4 2 3 4 2 1 2 2 1 2 1 5 4 3 2 2 7 7 1 0 3 1 4 6 4 2 1 1 2 2 3 2 2 3 1 1 2 2 1 1 4 4 3 3 0 3 4 3 1 3 4 6 2 5 5 8 14 16 15 16 17 17
3 2 1 5 4 2 4 7 5 2 1 2 3 2 4 5 7 13 14 11 5 3 5 6 4 3 3 3 4 5 3 1 2 2 1 3 3 2 5 6 3 1 3 5 3 0 1 1 2 4 4 3 4 3 3 3 0 0 1 3 2 2 3 2 2 2 2 4 3 5 3 4 4 2 1 3 2 8 6 3 7 11 17 18 16 15 16 17
1 1 2 5 5 4 5 6 1 1 3 2 3 3 7 7 7 9 9 10 7 5 7 6 3 2 2 2 2 3 4 2 1 1 2 3 2 2 5 9 8 6 3 0 2 2 2 2 0 3 3 4 5 4 6 7 6 4 2 2 1 1 4 5 4 2 2 2 1 3 3 3 3 2 2 3 4 5 9 7 6 16 20 20 20 19 18 17
1 1 3 5 5 3 3 1 4 1 2 4 4 6 9 6 5 8 8 7 5 4 5 5 4 4 3 2 2 4 5 3 1 1 1 2 2 5 8 10 9 5 3 1 2 1 2 2 2 4 3 4 5 0 7 10 8 5 4 4 4 2 1 5 5 4 3 1 1 3 2 2 1 2 3 5 6 8 10 10 7 15 21 23 24 23 22 21
3 1 5 6 6 3 2 1 2 2 3 5 4 6 8 4 3 6 5 3 4 2 1 3 5 5 3 3 3 5 6 3 2 4 2 0 3 5 7 9 7 3 1 2 1 1 0 1 1 2 1 3 4 2 4 6 6 2 4 6 6 6 4 2 1 3 3 4 4 5 2 3 2 4 6 6 7 8 11 11 9 13 20 24 26 25 24 23
3 1 5 6 8 6 1 2 2 1 2 3 3 4 6 5 5 7 5 3 5 4 0 2 5 4 4 4 3 6 6 3 1 3 4 3 4 3 3 7 7 4 2 3 4 2 1 1 2 3 3 3 3 3 2 1 3 1 4 8 9 9 6 1 2 3 2 3 4 5 3 3 5 7 8 8 7 5 7 13 15 16 21 26 27 27 26 25
3 1 2 2 5 4 3 3 3 2 1 2 3 3 5 4 7 11 9 5 9 8 3 2 6 4 5 5 4 6 7 5 4 4 4 5 4 4 3 8 11 11 6 7 9 4 2 2 2 4 4 4 3 2 2 4 5 3 5 9 10 9 7 2 4 3 5 4 3 1 6 9 9 10 11 9 8 6 6 12 16 18 23 27 28 29 28 27
2 0 1 2 1 2 3 2 3 3 1 2 2 3 5 4 5 8 8 5 9 11 4 3 7 6 4 5 4 3 5 4 5 5 5 4 3 5 5 10 12 14 8 6 7 5 3 3 0 3 3 2 1 3 3 8 9 6 7 9 10 10 10 7 3 1 5 7 1 2 9 13 9 10 12 10 8 8 8 12 17 20 24 27 29 30 30 29
2 1 3 3 1 2 1 1 3 5 4 3 2 2 4 5 4 4 5 4 7 12 6 4 8 8 6 6 3 2 4 4 4 4 4 5 4 5 7 7 8 13 12 7 6 5 4 2 3 2 1 1 5 5 4 7 9 8 9 9 11 11 10 7 4 2 2 5 6 8 11 12 10 10 9 6 6 10 13 16 20 23 25 27 29 31 31 31
4 2 2 3 1 3 2 2 5 7 5 3 2 2 2 5 5 3 4 4 5 8 6 3 7 9 7 6 4 2 3 2 3 3 3 5 5 3 4 4 5 11 11 6 5 5 3 2 5 4 2 4 6 6 6 6 7 8 9 10 10 10 7 6 5 3 4 5 10 14 12 7 5 6 6 6 10 18 21 21 23 24 25 28 31 32 32 32
5 3 4 5 3 2 1 3 5 5 3 3 2 2 2 3 4 4 4 3 2 5 6 4 7 9 5 5 5 2 0 2 1 3 3 4 5 2 2 1 1 5 6 3 3 5 3 1 4 3 3 4 6 7 8 7 7 8 9 10 11 10 6 5 6 5 8 8 10 14 12 6 4 7 12 11 13 21 22 21 23 23 24 28 31 31 31 31
6 5 5 3 3 6 2 3 4 3 2 3 0 1 2 2 3 3 2 2 2 1 3 4 6 6 5 6 4 2 5 3 4 9 8 6 6 4 2 2 0 1 1 2 1 1 2 1 3 2 2 2 5 5 5 6 6 8 10 11 11 8 4 3 3 2 5 9 11 11 8 5 4 10 15 12 12 18 20 18 21 22 23 28 30 30 30 30
6 6 7 4 2 7 6 2 4 4 2 3 2 3 2 4 5 3 1 4 5 3 3 5 5 4 4 5 5 8 13 14 15 19 18 16 14 9 8 10 7 3 3 2 2 0 2 3 1 2 2 1 4 2 3 4 5 4 5 8 7 6 4 1 3 4 4 7 9 7 4 5 8 11 12 9 10 15 16 17 20 22 24 27 28 27 26 25
Wind_Direction
14 18 19 18 17 11 7 4 0 359 356 348 340 334 324 312 306 305 309 312 317 320 325 331 332 336 335 332 333 329 323 313 308 300 289 293 288 267 264 249 232 224 224 216 211 206 201 198 188 181 186 193 220 241 233 239 241 235 211 204 237 239 242 169 183 254 254 295 309 313 313 311 82 100 107 96 104 105 105 95 110 128 143 158 160 161 163 162
2 6 7 9 11 8 8 4 1 359 357 356 353 347 339 328 317 308 305 304 307 310 315 321 325 332 329 328 331 328 323 318 314 303 293 303 273 263 263 244 227 223 222 212 209 207 201 194 185 180 186 195 215 234 235 243 225 209 178 197 226 230 238 156 230 266 286 302 303 303 301 300 58 119 135 107 95 101 92 76 99 113 128 148 155 159 162 163
351 354 354 356 357 358 360 358 0 357 354 355 353 352 348 341 333 319 308 301 299 302 305 311 316 323 323 323 327 326 325 322 320 310 330 16 335 275 259 248 228 225 221 204 204 207 203 190 184 182 183 208 222 231 243 249 219 206 204 210 239 236 265 277 265 277 294 295 291 299 303 335 14 48 139 116 109 106 109 120 110 118 134 147 155 161 163 164
341 342 342 344 344 345 345 347 352 352 353 351 348 350 347 345 340 330 318 306 299 297 299 302 305 314 317 318 324 325 328 328 319 159 61 14 5 338 251 241 230 223 210 196 196 199 197 178 179 186 185 223 235 240 250 243 238 206 198 214 248 250 274 270 269 277 281 284 283 294 314 351 2 89 135 121 103 52 155 156 153 147 149 153 157 162 164 166
334 333 334 335 335 336 335 337 338 341 344 343 344 342 341 343 339 335 327 316 306 297 294 295 298 305 308 314 321 322 331 341 151 130 20 4 9 13 323 225 223 217 201 191 191 190 187 173 179 199 200 233 238 240 248 240 245 249 237 243 252 255 259 266 269 272 271 277 282 292 307 331 341 99 141 146 145 200 184 168 167 161 159 161 162 163 164 165
330 328 329 329 329 329 328 329 329 330 330 333 337 334 334 333 333 337 332 327 316 302 294 292 294 297 302 309 313 317 325 298 235 345 315 297 360 9 19 229 218 217 201 188 189 186 184 182 191 212 209 233 235 223 247 247 239 244 266 258 258 256 249 262 267 269 269 273 277 285 291 295 339 356 140 175 190 184 179 174 172 166 163 164 163 163 163 163
328 326 325 325 324 323 322 322 322 321 321 322 324 325 327 325 327 330 330 334 325 314 302 292 291 291 296 303 307 311 300 277 282 325 275 256 320 348 2 340 249 223 206 192 192 186 188 193 198 218 216 233 240 228 248 255 239 226 261 261 262 261 254 260 262 263 265 267 276 278 281 282 41 330 344 149 177 175 173 173 169 163 162 163 162 162 162 162
327 324 322 321 319 319 317 317 315 315 315 314 315 315 315 316 318 319 325 330 327 327 314 301 293 287 292 297 305 309 292 286 302 292 210 176 289 315 326 318 298 248 216 198 194 187 191 200 206 218 218 237 243 244 249 257 253 229 247 258 264 266 264 265 262 260 261 263 274 272 271 273 230 295 330 135 157 167 166 164 162 160 160 162 162 161 163 167
327 325 323 321 317 317 314 314 312 310 310 309 309 307 307 307 308 312 313 317 322 326 321 316 303 291 291 291 302 311 290 281 290 237 184 164 278 294 292 291 288 269 230 205 198 191 196 205 211 211 214 249 248 256 256 250 258 232 240 253 258 264 266 267 265 260 262 264 260 260 274 281 283 356 254 153 156 164 162 157 159 161 161 162 163 165 169 174
328 325 324 321 319 318 315 314 312 310 308 305 304 302 302 300 301 306 304 308 311 311 314 314 310 299 291 287 292 306 277 242 217 228 182 223 282 293 282 276 274 270 234 209 198 193 200 202 207 215 244 261 250 257 260 237 255 265 265 267 264 268 271 270 270 263 263 265 242 228 240 269 282 339 241 160 160 163 158 156 161 162 162 165 166 169 175 179
328 325 324 323 321 320 317 317 314 311 308 304 302 298 297 297 299 300 298 303 299 299 302 300 307 299 289 283 258 252 251 214 208 194 175 268 284 299 301 282 270 264 237 214 200 194 200 199 203 230 269 272 262 262 262 258 270 282 287 284 280 280 283 280 277 267 262 263 236 224 218 258 279 291 225 171 166 166 162 161 164 165 166 168 169 173 180 182
327 325 324 323 321 321 320 319 315 312 309 305 302 297 295 295 295 295 295 298 294 293 294 294 300 291 290 278 258 259 268 251 243 229 247 270 268 289 312 294 271 258 249 218 202 194 196 206 216 242 255 272 289 276 276 291 299 306 308 291 288 294 291 280 272 267 265 256 234 221 227 281 273 238 236 181 168 170 165 165 169 172 171 171 173 176 181 184
325 324 324 323 322 322 320 318 314 311 308 306 304 299 297 294 293 293 291 292 291 292 292 294 294 289 289 272 268 288 293 275 261 246 253 254 240 244 273 275 263 246 258 231 203 196 202 227 243 255 263 266 267 277 295 307 316 315 312 282 292 311 296 269 256 261 264 242 222 200 230 276 254 245 247 193 170 169 163 167 175 175 173 173 175 178 182 186
323 322 322 322 321 321 319 316 313 310 308 307 305 302 299 295 292 289 288 290 289 292 293 293 293 290 278 271 286 302 280 265 245 235 237 226 215 217 229 249 251 229 236 238 203 202 221 254 262 265 270 260 251 285 312 315 325 315 310 313 288 279 279 279 271 263 280 258 211 183 212 255 255 253 249 208 175 172 168 173 178 176 176 173 174 182 183 180
322 321 320 319 319 319 317 315 313 310 308 306 304 302 299 296 292 287 288 288 287 292 295 294 289 286 280 281 297 300 240 235 230 225 216 203 201 205 215 226 235 228 230 239 220 225 252 271 266 265 273 263 253 307 348 325 329 318 289 306 289 239 277 292 281 240 238 270 215 181 226 253 256 248 244 222 181 176 179 178 181 181 177 172 175 180 167 154
322 321 319 318 317 316 316 315 313 310 309 307 305 303 299 296 293 290 291 288 288 292 290 282 270 273 289 287 303 299 231 236 231 218 208 209 210 210 218 231 231 234 245 252 256 259 265 268 266 264 271 266 237 158 18 333 324 329 193 243 271 264 290 299 287 254 220 248 233 191 224 250 264 248 239 233 191 181 185 180 182 184 177 173 171 157 140 145
323 321 320 319 318 316 315 313 311 311 311 310 307 302 298 295 293 293 293 288 286 287 266 246 249 270 273 268 283 288 248 250 248 221 209 215 223 214 216 234 230 228 242 252 256 259 262 261 257 260 262 237 166 120 94 278 266 281 266 233 262 251 262 284 290 287 236 226 241 225 233 234 252 249 233 237 210 184 186 183 181 185 182 171 152 132 139 141
324 324 325 324 321 318 314 312 311 312 314 314 313 309 302 298 295 293 291 286 278 267 224 217 194 296 270 255 265 273 264 299 291 246 215 212 216 213 218 230 228 225 230 236 238 243 255 259 236 259 274 221 177 131 179 233 217 224 246 243 278 266 257 268 269 284 267 243 252 245 252 245 252 258 234 235 225 191 185 189 184 185 180 154 134 134 135 124
325 327 330 329 327 322 317 314 314 316 318 318 318 313 308 308 305 297 289 265 205 177 255 213 191 224 271 265 262 265 280 297 304 270 220 206 211 212 220 229 231 226 216 206 228 224 225 253 272 245 249 227 214 182 205 244 174 220 243 226 247 270 266 266 262 261 255 263 264 248 244 245 247 250 241 237 236 213 187 188 186 183 165 134 135 142 133 123
325 329 331 331 330 324 319 317 319 323 322 322 330 330 328 334 329 312 295 264 249 267 280 254 238 249 262 267 265 270 284 288 294 257 215 201 207 209 215 224 229 223 202 158 210 216 193 203 241 231 223 214 228 228 224 249 266 258 281 273 259 267 269 274 273 274 244 223 255 245 239 244 244 242 241 236 236 225 176 172 173 171 149 133 141 141 132 130
326 329 330 331 329 324 321 320 324 326 322 324 340 348 347 348 341 323 319 294 284 284 277 270 261 257 261 263 261 271 288 287 282 246 215 202 204 205 208 212 207 213 207 179 190 213 182 204 236 228 211 208 221 229 225 241 251 250 263 273 277 270 270 274 274 284 247 204 257 250 239 245 243 238 237 233 225 209 179 156 155 161 147 142 147 138 132 133
327 328 330 330 327 324 320 321 324 321 317 316 330 351 354 349 331 311 318 300 291 290 279 275 265 256 263 263 258 264 273 271 266 254 226 202 200 200 192 194 180 199 218 176 179 245 219 233 239 224 211 209 226 232 222 232 240 244 246 259 270 264 282 276 271 310 269 206 261 258 242 241 242 235 232 229 214 217 209 169 159 161 153 151 150 140 138 140
325 326 329 328 327 324 317 320 319 310 305 299 322 359 7 5 357 324 313 289 290 290 274 263 252 248 258 260 255 251 245 246 246 249 235 196 193 196 184 183 186 194 208 174 186 207 235 253 233 217 215 205 232 242 232 245 246 239 237 246 261 254 268 267 272 343 303 243 248 260 249 237 245 244 239 237 223 232 229 180 167 166 161 159 155 148 148 150
323 326 327 328 327 322 318 318 313 303 295 288 329 4 11 12 10 350 324 284 287 286 273 261 247 242 251 254 250 229 220 228 229 238 231 194 186 190 186 183 181 195 209 191 197 202 234 252 223 191 213 206 226 243 233 242 253 248 231 225 249 252 242 244 281 332 319 307 272 267 289 255 249 233 242 256 226 241 231 162 161 162 159 156 151 150 152 154
321 323 325 328 326 320 319 318 311 297 290 286 319 351 2 8 359 347 332 310 284 282 285 270 234 236 244 247 238 214 212 225 226 227 220 199 189 183 187 189 181 208 217 197 203 211 241 250 226 194 220 210 217 242 227 205 231 263 237 216 232 249 248 254 304 337 348 319 290 85 43 277 288 234 242 284 104 259 113 131 141 144 146 146 148 150 151 154
320 321 324 327 326 322 322 324 319 306 294 288 294 316 328 352 355 342 331 359 300 271 296 229 202 227 229 215 207 194 194 233 228 224 214 204 198 189 185 188 179 211 209 198 205 210 243 242 212 206 222 210 214 241 231 189 193 257 240 214 224 237 240 246 285 298 327 276 274 82 117 258 317 313 257 295 71 59 88 122 134 139 144 149 153 153 153 155
320 321 322 325 328 327 326 335 329 317 311 302 280 279 294 317 350 335 328 23 299 259 132 174 187 202 203 194 182 165 143 236 219 223 213 204 201 194 191 183 180 209 194 172 212 222 236 230 212 214 215 208 215 240 233 185 169 244 237 208 217 218 205 206 242 244 228 271 301 2 127 176 303 281 266 310 63 74 111 129 127 140 150 156 157 157 158 160
321 321 320 321 329 326 323 331 335 335 334 313 281 264 287 315 324 325 75 48 280 256 104 192 207 245 211 181 172 170 185 163 168 221 213 200 197 192 193 188 180 208 198 170 219 250 232 211 213 213 208 205 211 230 229 185 173 237 226 201 219 212 186 193 227 256 276 315 305 303 111 116 275 274 306 346 57 84 142 141 132 149 158 160 159 159 161 163
322 323 318 315 323 319 314 321 329 336 312 300 287 262 281 314 307 30 81 155 291 333 21 201 214 237 178 162 177 193 206 161 151 214 200 191 195 195 201 205 190 213 217 181 211 255 251 237 237 214 207 212 215 229 226 200 202 230 211 197 229 232 164 176 218 250 349 7 265 274 192 127 266 300 334 359 57 110 157 129 129 152 160 163 160 159 161 161
321 323 317 311 318 311 307 316 302 275 294 307 319 272 257 305 49 64 74 250 296 308 306 88 339 300 169 150 186 208 215 214 157 155 172 183 193 198 201 207 202 215 243 214 222 246 262 271 271 236 220 216 209 223 219 209 208 192 175 191 263 332 45 66 232 113 74 252 255 256 207 131 272 303 308 312 343 151 144 125 139 151 162 168 163 159 160 160
321 321 313 307 312 302 301 314 260 237 282 321 355 6 167 88 59 96 212 275 301 275 326 30 334 326 298 159 195 202 207 239 143 128 152 177 188 201 189 199 209 234 317 296 273 274 279 276 274 247 245 229 196 214 221 203 188 143 130 142 355 334 21 33 357 78 131 247 259 245 179 111 147 271 281 301 274 169 150 149 156 157 164 169 165 162 163 161
325 315 305 301 303 297 295 294 225 229 256 290 331 347 124 67 21 185 243 319 333 273 360 2 331 334 317 255 234 198 192 225 174 131 149 156 172 206 192 181 190 187 282 271 277 304 296 261 253 258 256 232 171 217 282 8 61 114 81 84 98 297 338 359 310 142 186 243 255 228 117 100 207 239 310 319 290 191 158 155 160 159 159 162 164 165 165 162
329 308 300 298 304 306 297 271 226 223 240 256 289 331 90 82 232 229 261 304 327 330 343 338 331 331 298 246 222 240 208 268 322 88 165 168 173 206 223 217 174 151 216 227 247 291 294 287 279 260 253 218 147 152 256 334 353 137 117 117 143 197 239 278 268 269 227 238 258 243 124 120 253 304 338 331 320 160 146 146 151 153 153 156 161 165 165 163
331 310 304 303 337 355 344 256 220 219 232 227 202 65 84 136 237 254 280 261 278 319 335 337 329 324 306 249 188 171 190 196 189 60 172 166 175 202 233 241 197 144 152 205 229 207 226 293 277 217 233 205 161 169 177 170 175 189 168 141 153 171 162 212 223 209 234 237 277 292 117 115 203 281 325 342 29 114 132 134 138 144 150 154 158 161 162 163
330 313 307 190 48 47 61 76 162 187 165 153 114 75 137 207 258 262 264 280 301 328 332 333 324 315 324 313 236 178 64 204 223 322 96 164 184 200 197 217 220 173 135 189 229 184 194 248 255 241 231 185 191 212 166 127 168 244 149 111 179 197 159 168 194 169 185 217 340 352 49 56 173 231 340 13 59 88 127 135 138 146 152 153 154 155 156 161
333 318 279 193 152 81 76 74 92 124 113 100 90 88 203 214 242 232 276 315 327 335 330 329 335 336 332 334 333 354 27 61 318 329 312 172 205 232 194 195 209 171 142 185 221 201 197 253 272 288 290 204 208 218 167 142 185 267 84 161 224 181 135 127 249 5 88 133 308 25 73 344 354 23 348 8 71 60 50 115 127 140 145 143 144 146 150 158
347 341 328 191 179 152 118 88 91 101 83 71 98 195 230 229 236 253 305 317 312 319 334 336 335 327 330 342 344 351 20 66 255 269 279 269 286 295 292 328 38 120 115 154 225 250 204 251 280 287 299 265 229 223 213 169 168 155 214 229 220 115 99 108 146 1 43 153 262 25 86 10 4 62 317 335 81 89 23 5 50 94 116 117 119 129 141 152
358 7 47 103 160 164 166 144 108 100 70 65 91 246 243 249 272 289 303 308 310 315 332 309 269 259 345 338 316 338 2 284 317 109 316 319 294 332 15 321 327 69 52 65 112 276 220 244 284 266 246 284 273 210 293 285 205 177 193 196 134 131 245 44 143 159 88 165 228 29 68 69 54 219 281 305 115 127 125 138 126 89 85 89 98 113 128 144
354 12 76 75 88 142 154 170 153 125 73 72 225 261 242 256 273 284 289 290 290 301 293 247 239 302 340 311 279 307 328 193 124 91 354 345 306 325 351 304 282 34 22 26 119 274 295 234 280 284 234 293 12 69 279 299 300 349 119 155 114 142 179 175 163 158 147 164 166 80 14 66 238 272 240 234 262 182 137 124 86 71 78 85 93 105 119 137
343 1 118 168 187 129 141 168 170 151 96 130 207 232 255 269 276 280 287 291 275 264 277 257 262 297 291 297 315 312 322 118 117 117 169 177 250 311 301 263 269 342 356 4 71 253 354 214 246 295 289 262 345 70 153 193 281 313 165 188 201 88 135 161 173 115 130 147 157 142 218 257 248 294 228 174 303 301 192 125 93 68 78 87 91 97 109 122
333 354 178 190 200 200 158 159 166 147 123 234 226 229 260 264 276 286 302 328 337 309 312 299 296 302 292 359 354 318 329 7 125 115 156 189 181 255 232 200 167 106 352 5 19 259 344 154 213 290 296 237 214 197 143 122 127 348 154 193 208 141 126 142 255 312 82 122 154 151 171 254 262 323 4 103 3 306 308 81 107 93 86 89 89 88 98 109
114 131 174 180 195 215 169 154 184 184 170 260 271 279 290 279 282 302 328 355 359 350 339 324 311 328 350 26 351 328 347 354 145 120 185 200 204 215 199 183 166 146 137 203 271 226 166 105 95 271 250 238 231 178 108 73 62 60 46 13 22 128 133 145 192 242 46 66 96 114 125 246 283 344 13 46 35 342 340 353 83 97 92 91 90 89 94 102
122 186 170 174 187 186 144 107 343 322 228 307 318 312 316 307 308 335 347 351 0 11 353 334 326 342 9 5 349 360 356 352 31 359 204 186 255 222 181 165 164 149 118 178 241 239 100 78 347 300 286 300 296 297 77 60 59 47 350 2 25 336 193 154 170 169 132 129 95 78 89 248 294 67 86 56 48 48 28 8 38 84 88 86 87 90 91 95
335 227 179 184 204 204 115 137 311 323 290 318 342 329 332 328 315 341 340 320 342 356 350 343 331 332 342 340 13 28 9 9 29 7 4 208 260 225 166 140 131 117 115 163 214 273 356 99 54 19 349 330 321 332 35 34 49 49 321 341 11 2 5 71 99 97 131 187 154 124 167 231 145 112 106 81 70 69 63 60 69 83 86 85 85 87 89 91
5 197 193 193 210 220 70 123 170 178 288 327 353 328 335 335 326 339 334 333 358 354 60 347 323 331 2 4 36 32 20 33 24 4 9 347 321 336 92 110 90 66 123 99 49 30 134 117 102 109 153 184 187 208 225 25 42 25 332 349 9 10 2 37 113 88 152 186 122 127 174 164 131 124 116 106 103 92 85 93 96 90 88 87 86 87 88 89
60 143 218 173 174 164 89 79 102 111 222 12 17 324 335 335 327 343 353 21 16 3 27 13 344 3 16 17 47 30 11 11 7 16 14 353 331 333 36 90 63 38 62 70 46 53 98 80 116 131 152 183 176 188 181 105 81 46 9 6 10 5 358 55 120 138 170 143 66 154 160 140 141 143 141 147 148 142 125 108 101 92 88 86 85 88 89 87
64 127 138 86 100 102 71 33 65 76 67 86 74 313 345 351 325 346 357 19 18 8 17 18 13 30 9 1 52 35 348 356 18 15 348 336 301 314 21 73 52 33 52 65 48 71 81 21 322 149 155 193 91 61 79 90 82 60 36 21 11 6 13 38 70 136 142 126 86 211 150 137 151 159 153 163 161 141 126 109 100 93 88 86 86 87 87 86
33 54 83 78 204 198 64 37 97 74 41 69 85 312 357 358 337 349 338 330 15 20 22 3 10 23 6 3 62 46 349 4 16 359 337 345 331 323 7 48 40 40 56 51 37 73 100 9 306 271 215 359 26 27 44 88 85 59 41 29 14 7 17 29 358 309 128 143 163 163 147 138 149 158 150 152 140 120 111 104 99 92 87 86 85 83 82 82
46 55 35 31 251 216 199 155 116 83 52 61 37 340 2 351 334 319 318 327 2 13 25 29 354 355 358 16 71 78 22 32 354 328 319 340 335 329 3 359 8 37 52 54 21 30 76 40 320 324 356 11 29 27 17 56 88 62 35 25 14 0 1 17 7 21 78 119 139 136 129 120 129 137 106 87 106 109 104 98 93 89 87 87 84 81 79 79
60 47 345 350 359 327 218 153 113 87 42 39 42 321 337 346 328 308 328 12 13 343 10 26 340 336 349 18 54 73 50 138 207 264 278 332 332 346 23 331 327 21 33 73 18 357 37 25 316 353 34 1 22 38 23 33 75 66 34 17 9 356 350 6 6 37 70 85 111 119 116 101 71 75 75 79 101 101 94 89 88 89 92 91 87 84 82 81
83 59 13 356 356 356 17 119 103 100 31 11 79 267 322 305 295 299 315 18 56 321 337 339 328 336 344 353 16 325 297 294 251 259 261 265 269 266 306 311 302 359 359 108 91 316 88 80 322 23 67 355 16 47 40 27 43 48 27 5 353 341 335 3 350 356 99 114 118 115 116 125 102 81 78 77 85 89 87 87 89 89 91 91 89 87 85 85
94 71 51 81 60 6 12 61 56 64 35 337 271 229 260 274 299 334 347 337 345 337 319 316 324 357 346 325 319 303 305 307 295 290 285 272 265 273 291 293 288 257 202 128 93 172 123 120 108 57 80 320 336 29 93 50 22 30 7 344 328 301 282 52 62 49 75 115 130 132 131 126 115 99 91 80 74 81 87 91 93 94 92 92 92 90 87 86